| time (UTC) | temp F | wind direction | speed MPH | gust MPH | rain 1hr in | rain 24hr in | rain mn in | humidity % | barometer mb |
| 20260904105615 | 73 | 163 | 5.0 | 16.0 | 0.00 | 0.00 | 0.00 | 16 | 1003.1 |
| 20260904104506 | 72 | 181 | 5.0 | 16.0 | 0.00 | 0.00 | 0.00 | 17 | 1003.1 |
| 20260904104005 | 72 | 157 | 4.0 | 13.0 | 0.00 | 0.00 | 0.00 | 18 | 1003.0 |
| 20260904103453 | 72 | 249 | 4.0 | 13.0 | 0.00 | 0.00 | 0.00 | 18 | 1003.1 |
| 20260904102951 | 72 | 225 | 4.0 | 12.0 | 0.00 | 0.00 | 0.00 | 19 | 1003.0 |
| 20260904102455 | 72 | 236 | 4.0 | 12.0 | 0.00 | 0.00 | 0.00 | 19 | 1002.9 |
| 20260904102000 | 72 | 223 | 4.0 | 12.0 | 0.00 | 0.00 | 0.00 | 20 | 1002.9 |
| 20260904101502 | 72 | 171 | 4.0 | 11.0 | 0.00 | 0.00 | 0.00 | 20 | 1002.8 |
| 20260904101002 | 72 | 171 | 4.0 | 15.0 | 0.00 | 0.00 | 0.00 | 19 | 1002.8 |
| 20260904100456 | 72 | 258 | 4.0 | 15.0 | 0.00 | 0.00 | 0.00 | 19 | 1002.8 |
| 20260904094645 | 73 | 178 | 5.0 | 19.0 | 0.00 | 0.00 | 0.00 | 19 | 1002.7 |
| 20260904094134 | 73 | 206 | 4.0 | 13.0 | 0.00 | 0.00 | 0.00 | 19 | 1002.7 |
| 20260904093643 | 73 | 218 | 4.0 | 12.0 | 0.00 | 0.00 | 0.00 | 19 | 1002.7 |
| 20260904093126 | 73 | 166 | 3.0 | 14.0 | 0.00 | 0.00 | 0.00 | 19 | 1002.6 |
| 20260904092616 | 73 | 180 | 4.0 | 14.0 | 0.00 | 0.00 | 0.00 | 18 | 1002.6 |
| 20260904092118 | 73 | 246 | 5.0 | 14.0 | 0.00 | 0.00 | 0.00 | 18 | 1002.6 |
| 20260904091607 | 73 | 263 | 4.0 | 14.0 | 0.00 | 0.00 | 0.00 | 18 | 1002.6 |
| 20260904090440 | 72 | 184 | 4.0 | 11.0 | 0.00 | 0.00 | 0.00 | 19 | 1002.6 |
| 20260904085312 | 72 | 278 | 2.0 | 11.0 | 0.00 | 0.00 | 0.00 | 20 | 1002.6 |
| 20260904084759 | 72 | 178 | 2.0 | 9.0 | 0.00 | 0.00 | 0.00 | 20 | 1002.6 |
| 20260904083634 | 73 | 244 | 3.0 | 9.0 | 0.00 | 0.00 | 0.00 | 19 | 1002.6 |
| 20260904083128 | 73 | 163 | 3.0 | 9.0 | 0.00 | 0.00 | 0.00 | 19 | 1002.7 |
| 20260904082628 | 74 | 225 | 3.0 | 19.0 | 0.00 | 0.00 | 0.00 | 18 | 1002.5 |
| 20260904082131 | 74 | 197 | 4.0 | 19.0 | 0.00 | 0.00 | 0.00 | 18 | 1002.5 |
| 20260904080953 | 74 | 232 | 5.0 | 19.0 | 0.00 | 0.00 | 0.00 | 16 | 1002.5 |
| 20260904080438 | 74 | 230 | 4.0 | 16.0 | 0.00 | 0.00 | 0.00 | 17 | 1002.5 |
| 20260904075927 | 74 | 179 | 4.0 | 13.0 | 0.00 | 0.00 | 0.00 | 18 | 1002.4 |
| 20260904075426 | 73 | 244 | 4.0 | 13.0 | 0.00 | 0.00 | 0.00 | 18 | 1002.2 |
| 20260904074929 | 73 | 200 | 2.0 | 7.0 | 0.00 | 0.00 | 0.00 | 19 | 1002.1 |
| 20260904074433 | 73 | 225 | 2.0 | 13.0 | 0.00 | 0.00 | 0.00 | 20 | 1002.2 |
| 20260904073925 | 73 | 213 | 2.0 | 13.0 | 0.00 | 0.00 | 0.00 | 20 | 1002.2 |
| 20260904073432 | 74 | 162 | 2.0 | 13.0 | 0.00 | 0.00 | 0.00 | 19 | 1002.3 |
| 20260904072917 | 74 | 244 | 3.0 | 13.0 | 0.00 | 0.00 | 0.00 | 19 | 1002.2 |
| 20260904072424 | 74 | 229 | 2.0 | 10.0 | 0.00 | 0.00 | 0.00 | 20 | 1002.2 |
| 20260904071317 | 74 | 228 | 3.0 | 9.0 | 0.00 | 0.00 | 0.00 | 21 | 1002.0 |
| 20260904070801 | 74 | 231 | 2.0 | 9.0 | 0.00 | 0.00 | 0.00 | 21 | 1002.0 |
| 20260904070305 | 74 | 185 | 3.0 | 9.0 | 0.00 | 0.00 | 0.00 | 21 | 1002.0 |
| 20260904065748 | 74 | 192 | 2.0 | 9.0 | 0.00 | 0.00 | 0.00 | 21 | 1001.9 |
| 20260904065241 | 74 | 217 | 2.0 | 7.0 | 0.00 | 0.00 | 0.00 | 21 | 1001.8 |
| 20260904064747 | 75 | 232 | 3.0 | 7.0 | 0.00 | 0.00 | 0.00 | 21 | 1001.9 |
| 20260904064233 | 75 | 256 | 3.0 | 10.0 | 0.00 | 0.00 | 0.00 | 21 | 1001.8 |
| 20260904063730 | 75 | 155 | 4.0 | 10.0 | 0.00 | 0.00 | 0.00 | 20 | 1001.8 |
| 20260904062004 | 75 | 287 | 3.0 | 12.0 | 0.00 | 0.00 | 0.00 | 20 | 1001.6 |
| 20260904061508 | 75 | 256 | 3.0 | 12.0 | 0.00 | 0.00 | 0.00 | 19 | 1001.5 |
| 20260904061012 | 75 | 192 | 3.0 | 12.0 | 0.00 | 0.00 | 0.00 | 19 | 1001.5 |
| 20260904060458 | 75 | 220 | 3.0 | 9.0 | 0.00 | 0.00 | 0.00 | 19 | 1001.5 |
| 20260904060003 | 75 | 251 | 3.0 | 8.0 | 0.00 | 0.00 | 0.00 | 19 | 1001.5 |
| 20260904055505 | 75 | 187 | 3.0 | 8.0 | 0.00 | 0.00 | 0.00 | 20 | 1001.4 |
| 20260904054959 | 75 | 172 | 3.0 | 9.0 | 0.00 | 0.00 | 0.00 | 20 | 1001.4 |
| 20260904053810 | 75 | 185 | 3.0 | 11.0 | 0.00 | 0.00 | 0.00 | 20 | 1001.4 |
| 20260904053305 | 76 | 187 | 4.0 | 11.0 | 0.00 | 0.00 | 0.00 | 21 | 1001.2 |
| 20260904052748 | 76 | 181 | 4.0 | 11.0 | 0.00 | 0.00 | 0.00 | 21 | 1001.2 |
| 20260904052238 | 75 | 256 | 3.0 | 11.0 | 0.00 | 0.00 | 0.00 | 21 | 1001.2 |
| 20260904051724 | 75 | 215 | 2.0 | 7.0 | 0.00 | 0.00 | 0.00 | 21 | 1001.2 |
| 20260904051222 | 75 | 214 | 2.0 | 7.0 | 0.00 | 0.00 | 0.00 | 21 | 1001.2 |
| 20260904050716 | 75 | 255 | 2.0 | 7.0 | 0.00 | 0.00 | 0.00 | 20 | 1001.2 |
| 20260904050215 | 75 | 176 | 2.0 | 6.0 | 0.00 | 0.00 | 0.00 | 20 | 1001.2 |
| 20260904045702 | 75 | 277 | 2.0 | 6.0 | 0.00 | 0.00 | 0.00 | 20 | 1001.2 |
| 20260904045204 | 75 | 193 | 2.0 | 6.0 | 0.00 | 0.00 | 0.00 | 20 | 1001.3 |
| 20260904044651 | 74 | 264 | 2.0 | 6.0 | 0.00 | 0.00 | 0.00 | 20 | 1001.3 |
| 20260904043528 | 73 | 183 | 1.0 | 5.0 | 0.00 | 0.00 | 0.00 | 21 | 1001.3 |
| 20260904042406 | 72 | 227 | 0.0 | 4.0 | 0.00 | 0.00 | 0.00 | 22 | 1001.3 |
| 20260904041229 | 72 | 206 | 0.0 | 3.0 | 0.00 | 0.00 | 0.00 | 23 | 1001.2 |
| 20260904040737 | 72 | 256 | 0.0 | 1.0 | 0.00 | 0.00 | 0.00 | 23 | 1001.2 |
| 20260904040233 | 72 | 256 | 0.0 | 0.0 | 0.00 | 0.00 | 0.00 | 23 | 1001.1 |
| 20260904035731 | 73 | 256 | 0.0 | 2.0 | 0.00 | 0.00 | 0.00 | 22 | 1001.1 |
| 20260904035221 | 73 | 262 | 0.0 | 0.0 | 0.00 | 0.00 | 0.00 | 22 | 1001.1 |
| 20260904034705 | 74 | 262 | 0.0 | 0.0 | 0.00 | 0.00 | 0.00 | 21 | 1001.0 |
| 20260904034209 | 74 | 262 | 0.0 | 0.0 | 0.00 | 0.00 | 0.00 | 21 | 1001.0 |
| 20260904033704 | 75 | 262 | 0.0 | 0.0 | 0.00 | 0.00 | 0.00 | 20 | 1001.0 |
| 20260904033207 | 76 | 262 | 0.0 | 0.0 | 0.00 | 0.00 | 0.00 | 19 | 1001.1 |
| 20260904032656 | 76 | 261 | 0.0 | 0.0 | 0.00 | 0.00 | 0.00 | 19 | 1001.0 |
| 20260904032155 | 76 | 261 | 0.0 | 0.0 | 0.00 | 0.00 | 0.00 | 18 | 1001.0 |
| 20260904031031 | 76 | 256 | 0.0 | 2.0 | 0.00 | 0.00 | 0.00 | 18 | 1001.0 |
| 20260904030513 | 76 | 268 | 0.0 | 0.0 | 0.00 | 0.00 | 0.00 | 18 | 1001.0 |
| 20260904030014 | 77 | 282 | 0.0 | 0.0 | 0.00 | 0.00 | 0.00 | 18 | 1001.0 |
| 20260904025520 | 77 | 282 | 0.0 | 0.0 | 0.00 | 0.00 | 0.00 | 18 | 1000.9 |
| 20260904025030 | 78 | 282 | 0.0 | 0.0 | 0.00 | 0.00 | 0.00 | 17 | 1001.0 |
| 20260904024524 | 78 | 265 | 0.0 | 0.0 | 0.00 | 0.00 | 0.00 | 17 | 1000.9 |
| 20260904024009 | 79 | 261 | 0.0 | 3.0 | 0.00 | 0.00 | 0.00 | 17 | 1000.9 |
| 20260904023450 | 79 | 260 | 0.0 | 3.0 | 0.00 | 0.00 | 0.00 | 16 | 1000.8 |
| 20260904022931 | 80 | 278 | 0.0 | 3.0 | 0.00 | 0.00 | 0.00 | 16 | 1000.9 |
| 20260904022435 | 80 | 282 | 0.0 | 3.0 | 0.00 | 0.00 | 0.00 | 16 | 1000.8 |
| 20260904021933 | 80 | 278 | 0.0 | 2.0 | 0.00 | 0.00 | 0.00 | 16 | 1000.8 |
| 20260904020812 | 81 | 286 | 0.0 | 3.0 | 0.00 | 0.00 | 0.00 | 15 | 1000.8 |
| 20260904015006 | 82 | 257 | 2.0 | 8.0 | 0.00 | 0.00 | 0.00 | 15 | 1000.9 |
| 20260904013209 | 83 | 271 | 4.0 | 13.0 | 0.00 | 0.00 | 0.00 | 14 | 1001.0 |
| 20260904012714 | 84 | 284 | 5.0 | 13.0 | 0.00 | 0.00 | 0.00 | 14 | 1000.9 |
| 20260904012210 | 84 | 242 | 4.0 | 13.0 | 0.00 | 0.00 | 0.00 | 14 | 1001.0 |
| 20260904011704 | 84 | 262 | 3.0 | 13.0 | 0.00 | 0.00 | 0.00 | 14 | 1001.1 |
| 20260904011201 | 84 | 262 | 4.0 | 13.0 | 0.00 | 0.00 | 0.00 | 14 | 1001.0 |
| 20260904010642 | 84 | 257 | 5.0 | 14.0 | 0.00 | 0.00 | 0.00 | 14 | 1001.1 |
| 20260904005538 | 84 | 270 | 4.0 | 15.0 | 0.00 | 0.00 | 0.00 | 14 | 1001.2 |
| 20260904005024 | 84 | 253 | 5.0 | 15.0 | 0.00 | 0.00 | 0.00 | 14 | 1001.2 |
| 20260904004510 | 84 | 252 | 3.0 | 15.0 | 0.00 | 0.00 | 0.00 | 15 | 1001.3 |
| 20260904003959 | 84 | 261 | 3.0 | 9.0 | 0.00 | 0.00 | 0.00 | 15 | 1001.3 |
| 20260904003455 | 84 | 262 | 3.0 | 10.0 | 0.00 | 0.00 | 0.00 | 15 | 1001.3 |
| 20260904003000 | 84 | 246 | 3.0 | 10.0 | 0.00 | 0.00 | 0.00 | 15 | 1001.2 |
| 20260904002445 | 84 | 251 | 3.0 | 10.0 | 0.00 | 0.00 | 0.00 | 15 | 1001.2 |
| 20260904001929 | 84 | 179 | 3.0 | 8.0 | 0.00 | 0.00 | 0.00 | 15 | 1001.2 |
| 20260904000752 | 85 | 202 | 4.0 | 14.0 | 0.00 | 0.00 | 0.00 | 15 | 1001.3 |
| 20260904000240 | 85 | 147 | 4.0 | 15.0 | 0.00 | 0.00 | 0.00 | 14 | 1001.3 |
| 20260903235133 | 86 | 239 | 6.0 | 22.0 | 0.00 | 0.00 | 0.00 | 14 | 1001.5 |
| 20260903234629 | 86 | 159 | 7.0 | 22.0 | 0.00 | 0.00 | 0.00 | 14 | 1001.3 |
| 20260903234135 | 87 | 258 | 6.0 | 22.0 | 0.00 | 0.00 | 0.00 | 14 | 1001.3 |
| 20260903233643 | 87 | 278 | 6.0 | 17.0 | 0.00 | 0.00 | 0.00 | 13 | 1001.4 |
| 20260903233133 | 86 | 241 | 7.0 | 22.0 | 0.00 | 0.00 | 0.00 | 13 | 1001.5 |
| 20260903232633 | 86 | 157 | 8.0 | 22.0 | 0.00 | 0.00 | 0.00 | 13 | 1001.6 |
| 20260903232134 | 87 | 172 | 9.0 | 22.0 | 0.00 | 0.00 | 0.00 | 13 | 1001.7 |
| 20260903231641 | 86 | 253 | 9.0 | 22.0 | 0.00 | 0.00 | 0.00 | 12 | 1001.7 |
| 20260903231127 | 87 | 232 | 7.0 | 22.0 | 0.00 | 0.00 | 0.00 | 13 | 1001.7 |
| 20260903230612 | 87 | 197 | 7.0 | 22.0 | 0.00 | 0.00 | 0.00 | 13 | 1001.9 |
| 20260903230121 | 86 | 275 | 8.0 | 22.0 | 0.00 | 0.00 | 0.00 | 12 | 1001.9 |
| 20260903225625 | 86 | 227 | 8.0 | 19.0 | 0.00 | 0.00 | 0.00 | 12 | 1001.9 |
| 20260903225123 | 86 | 230 | 8.0 | 18.0 | 0.00 | 0.00 | 0.00 | 12 | 1002.0 |
| 20260903224629 | 86 | 266 | 7.0 | 18.0 | 0.00 | 0.00 | 0.00 | 13 | 1002.1 |
| 20260903224116 | 86 | 243 | 8.0 | 19.0 | 0.00 | 0.00 | 0.00 | 12 | 1002.2 |
| 20260903223615 | 86 | 189 | 8.0 | 19.0 | 0.00 | 0.00 | 0.00 | 12 | 1002.3 |
| 20260903223120 | 87 | 274 | 8.0 | 19.0 | 0.00 | 0.00 | 0.00 | 13 | 1002.3 |
| 20260903222624 | 86 | 166 | 7.0 | 19.0 | 0.00 | 0.00 | 0.00 | 11 | 1002.4 |
| 20260903222114 | 86 | 173 | 7.0 | 16.0 | 0.00 | 0.00 | 0.00 | 13 | 1002.3 |
| 20260903221609 | 87 | 263 | 6.0 | 16.0 | 0.00 | 0.00 | 0.00 | 13 | 1002.5 |
| 20260903221115 | 87 | 261 | 5.0 | 15.0 | 0.00 | 0.00 | 0.00 | 13 | 1002.5 |
| 20260903220618 | 87 | 168 | 5.0 | 17.0 | 0.00 | 0.00 | 0.00 | 12 | 1002.6 |
| 20260903220113 | 87 | 215 | 6.0 | 17.0 | 0.00 | 0.00 | 0.00 | 13 | 1002.6 |
| 20260903215603 | 87 | 154 | 5.0 | 17.0 | 0.00 | 0.00 | 0.00 | 12 | 1002.7 |
| 20260903214458 | 86 | 142 | 5.0 | 15.0 | 0.00 | 0.00 | 0.00 | 13 | 1002.9 |
| 20260903214002 | 86 | 244 | 5.0 | 16.0 | 0.00 | 0.00 | 0.00 | 13 | 1003.1 |
| 20260903213455 | 86 | 255 | 5.0 | 16.0 | 0.00 | 0.00 | 0.00 | 14 | 1003.0 |
| 20260903213005 | 86 | 232 | 7.0 | 21.0 | 0.00 | 0.00 | 0.00 | 13 | 1003.1 |
| 20260903212509 | 86 | 265 | 7.0 | 21.0 | 0.00 | 0.00 | 0.00 | 12 | 1003.2 |
| 20260903212003 | 86 | 294 | 5.0 | 21.0 | 0.00 | 0.00 | 0.00 | 12 | 1003.1 |
| 20260903211451 | 86 | 171 | 5.0 | 21.0 | 0.00 | 0.00 | 0.00 | 12 | 1003.0 |
| 20260903210945 | 86 | 270 | 5.0 | 12.0 | 0.00 | 0.00 | 0.00 | 13 | 1003.3 |
| 20260903210436 | 86 | 249 | 4.0 | 13.0 | 0.00 | 0.00 | 0.00 | 13 | 1003.5 |
| 20260903205944 | 86 | 184 | 4.0 | 13.0 | 0.00 | 0.00 | 0.00 | 13 | 1003.6 |
| 20260903205432 | 86 | 224 | 4.0 | 16.0 | 0.00 | 0.00 | 0.00 | 13 | 1003.5 |
| 20260903204930 | 85 | 161 | 6.0 | 16.0 | 0.00 | 0.00 | 0.00 | 13 | 1003.6 |
| 20260903204434 | 85 | 185 | 6.0 | 16.0 | 0.00 | 0.00 | 0.00 | 13 | 1003.8 |
| 20260903203917 | 85 | 171 | 5.0 | 16.0 | 0.00 | 0.00 | 0.00 | 13 | 1003.8 |
| 20260903202751 | 85 | 195 | 6.0 | 19.0 | 0.00 | 0.00 | 0.00 | 14 | 1004.1 |
| 20260903200948 | 85 | 216 | 4.0 | 17.0 | 0.00 | 0.00 | 0.00 | 14 | 1004.3 |
| 20260903195157 | 84 | 176 | 6.0 | 17.0 | 0.00 | 0.00 | 0.00 | 14 | 1004.5 |
| 20260903194648 | 85 | 266 | 4.0 | 16.0 | 0.00 | 0.00 | 0.00 | 14 | 1004.4 |
| 20260903194143 | 84 | 110 | 4.0 | 16.0 | 0.00 | 0.00 | 0.00 | 15 | 1004.6 |
| 20260903193625 | 84 | 213 | 3.0 | 14.0 | 0.00 | 0.00 | 0.00 | 14 | 1004.6 |
| 20260903193108 | 84 | 201 | 4.0 | 14.0 | 0.00 | 0.00 | 0.00 | 15 | 1004.6 |
| 20260903192617 | 84 | 158 | 5.0 | 14.0 | 0.00 | 0.00 | 0.00 | 15 | 1004.8 |
| 20260903190844 | 83 | 268 | 5.0 | 18.0 | 0.00 | 0.00 | 0.00 | 16 | 1005.1 |
| 20260903190339 | 83 | 255 | 5.0 | 18.0 | 0.00 | 0.00 | 0.00 | 14 | 1005.1 |
| 20260903184600 | 81 | 141 | 6.0 | 17.0 | 0.00 | 0.00 | 0.00 | 15 | 1005.3 |
| 20260903184057 | 81 | 204 | 5.0 | 17.0 | 0.00 | 0.00 | 0.00 | 14 | 1005.5 |
| 20260903183543 | 81 | 215 | 6.0 | 17.0 | 0.00 | 0.00 | 0.00 | 23 | 1005.7 |
| 20260903182433 | 81 | 149 | 5.0 | 13.0 | 0.00 | 0.00 | 0.00 | 15 | 1005.6 |
| 20260903181922 | 81 | 244 | 4.0 | 13.0 | 0.00 | 0.00 | 0.00 | 15 | 1005.9 |
| 20260903181413 | 81 | 264 | 3.0 | 13.0 | 0.00 | 0.00 | 0.00 | 15 | 1006.0 |
| 20260903180902 | 81 | 227 | 3.0 | 12.0 | 0.00 | 0.00 | 0.00 | 15 | 1006.1 |
| 20260903180402 | 81 | 261 | 4.0 | 14.0 | 0.00 | 0.00 | 0.00 | 16 | 1006.2 |
| 20260903175851 | 81 | 152 | 4.0 | 14.0 | 0.00 | 0.00 | 0.00 | 15 | 1006.2 |
| 20260903175358 | 81 | 106 | 5.0 | 14.0 | 0.00 | 0.00 | 0.00 | 17 | 1006.3 |
| 20260903174859 | 81 | 232 | 4.0 | 14.0 | 0.00 | 0.00 | 0.00 | 16 | 1006.1 |
| 20260903174347 | 81 | 155 | 3.0 | 13.0 | 0.00 | 0.00 | 0.00 | 17 | 1006.1 |
| 20260903173839 | 80 | 203 | 4.0 | 14.0 | 0.00 | 0.00 | 0.00 | 17 | 1006.1 |
| 20260903173348 | 80 | 186 | 5.0 | 14.0 | 0.00 | 0.00 | 0.00 | 17 | 1006.2 |
| 20260903172844 | 79 | 122 | 5.0 | 17.0 | 0.00 | 0.00 | 0.00 | 16 | 1006.2 |
| 20260903171105 | 79 | 187 | 4.0 | 17.0 | 0.00 | 0.00 | 0.00 | 19 | 1006.4 |
| 20260903170555 | 78 | 216 | 4.0 | 17.0 | 0.00 | 0.00 | 0.00 | 18 | 1006.5 |
| 20260903170037 | 78 | 315 | 4.0 | 17.0 | 0.00 | 0.00 | 0.00 | 18 | 1006.5 |
| 20260903165538 | 78 | 159 | 5.0 | 17.0 | 0.00 | 0.00 | 0.00 | 18 | 1006.6 |
| 20260903165040 | 77 | 225 | 5.0 | 17.0 | 0.00 | 0.00 | 0.00 | 16 | 1006.5 |
| 20260903164530 | 77 | 144 | 4.0 | 13.0 | 0.00 | 0.00 | 0.00 | 18 | 1006.6 |
| 20260903164017 | 77 | 182 | 5.0 | 13.0 | 0.00 | 0.00 | 0.00 | 18 | 1006.6 |
| 20260903163523 | 77 | 217 | 5.0 | 13.0 | 0.00 | 0.00 | 0.00 | 18 | 1006.6 |
| 20260903163009 | 76 | 201 | 5.0 | 12.0 | 0.00 | 0.00 | 0.00 | 18 | 1006.6 |
| 20260903162511 | 76 | 200 | 4.0 | 12.0 | 0.00 | 0.00 | 0.00 | 18 | 1006.6 |
| 20260903162006 | 76 | 202 | 3.0 | 12.0 | 0.00 | 0.00 | 0.00 | 19 | 1006.6 |
| 20260903161511 | 76 | 279 | 3.0 | 12.0 | 0.00 | 0.00 | 0.00 | 19 | 1006.5 |
| 20260903160953 | 75 | 166 | 2.0 | 11.0 | 0.00 | 0.00 | 0.00 | 19 | 1006.5 |
| 20260903155156 | 74 | 285 | 0.0 | 9.0 | 0.00 | 0.00 | 0.00 | 20 | 1006.6 |
| 20260903154019 | 71 | 337 | 0.0 | 1.0 | 0.00 | 0.00 | 0.00 | 32 | 1006.7 |
| 20260903153502 | 72 | 316 | 0.0 | 1.0 | 0.00 | 0.00 | 0.00 | 31 | 1006.8 |
| 20260903152332 | 70 | 329 | 0.0 | 0.0 | 0.00 | 0.00 | 0.00 | 32 | 1007.0 |
| 20260903151823 | 69 | 329 | 0.0 | 0.0 | 0.00 | 0.00 | 0.00 | 34 | 1007.0 |
| 20260903150639 | 69 | 341 | 0.0 | 0.0 | 0.00 | 0.00 | 0.00 | 35 | 1007.0 |
| 20260903144902 | 70 | 304 | 0.0 | 0.0 | 0.00 | 0.00 | 0.00 | 35 | 1007.0 |
| 20260903144401 | 70 | 305 | 0.0 | 0.0 | 0.00 | 0.00 | 0.00 | 34 | 1007.0 |
| 20260903143851 | 69 | 305 | 0.0 | 0.0 | 0.00 | 0.00 | 0.00 | 35 | 1007.0 |
| 20260903143358 | 67 | 304 | 0.0 | 0.0 | 0.00 | 0.00 | 0.00 | 37 | 1007.1 |
| 20260903142901 | 65 | 304 | 0.0 | 0.0 | 0.00 | 0.00 | 0.00 | 40 | 1007.1 |
| 20260903142408 | 63 | 305 | 0.0 | 0.0 | 0.00 | 0.00 | 0.00 | 42 | 1007.2 |
| 20260903141904 | 63 | 305 | 0.0 | 0.0 | 0.00 | 0.00 | 0.00 | 44 | 1007.1 |
| 20260903140749 | 63 | 279 | 0.0 | 0.0 | 0.00 | 0.00 | 0.00 | 45 | 1007.0 |
| 20260903140231 | 62 | 279 | 0.0 | 0.0 | 0.00 | 0.00 | 0.00 | 46 | 1007.0 |
| 20260903135714 | 61 | 279 | 0.0 | 0.0 | 0.00 | 0.00 | 0.00 | 47 | 1006.9 |
| 20260903134548 | 58 | 279 | 0.0 | 0.0 | 0.00 | 0.00 | 0.00 | 50 | 1006.7 |
| 20260903134042 | 58 | 279 | 0.0 | 0.0 | 0.00 | 0.00 | 0.00 | 50 | 1006.8 |
| 20260903133542 | 58 | 279 | 0.0 | 0.0 | 0.00 | 0.00 | 0.00 | 50 | 1006.7 |
| 20260903133032 | 57 | 264 | 0.0 | 1.0 | 0.00 | 0.00 | 0.00 | 47 | 1006.5 |
| 20260903132537 | 57 | 270 | 0.0 | 0.0 | 0.00 | 0.00 | 0.00 | 49 | 1006.4 |
| 20260903132022 | 57 | 267 | 0.0 | 1.0 | 0.00 | 0.00 | 0.00 | 48 | 1006.4 |
| 20260903131507 | 57 | 272 | 0.0 | 1.0 | 0.00 | 0.00 | 0.00 | 49 | 1006.3 |
| 20260903131008 | 56 | 259 | 0.0 | 2.0 | 0.00 | 0.00 | 0.00 | 52 | 1006.2 |
| 20260903130455 | 55 | 268 | 0.0 | 0.0 | 0.00 | 0.00 | 0.00 | 54 | 1006.2 |
| 20260903125959 | 54 | 272 | 0.0 | 0.0 | 0.00 | 0.00 | 0.00 | 56 | 1006.1 |
| 20260903125457 | 54 | 272 | 0.0 | 0.0 | 0.00 | 0.00 | 0.00 | 58 | 1006.1 |
| 20260903124944 | 54 | 272 | 0.0 | 0.0 | 0.00 | 0.00 | 0.00 | 58 | 1006.0 |
| 20260903124431 | 54 | 272 | 0.0 | 0.0 | 0.00 | 0.00 | 0.00 | 57 | 1006.1 |
| 20260903123923 | 54 | 272 | 0.0 | 0.0 | 0.00 | 0.00 | 0.00 | 57 | 1006.1 |
| 20260903123410 | 54 | 272 | 0.0 | 0.0 | 0.00 | 0.00 | 0.00 | 56 | 1006.1 |
| 20260903122907 | 55 | 272 | 0.0 | 0.0 | 0.00 | 0.00 | 0.00 | 56 | 1006.0 |
| 20260903122407 | 55 | 272 | 0.0 | 0.0 | 0.00 | 0.00 | 0.00 | 55 | 1005.9 |
| 20260903121850 | 55 | 272 | 0.0 | 0.0 | 0.00 | 0.00 | 0.00 | 55 | 1005.8 |
| 20260903121340 | 55 | 272 | 0.0 | 0.0 | 0.00 | 0.00 | 0.00 | 54 | 1005.8 |
| 20260903120846 | 55 | 272 | 0.0 | 0.0 | 0.00 | 0.00 | 0.00 | 54 | 1005.8 |
| 20260903120344 | 56 | 272 | 0.0 | 0.0 | 0.00 | 0.00 | 0.00 | 54 | 1005.8 |
| 20260903115854 | 56 | 272 | 0.0 | 0.0 | 0.00 | 0.00 | 0.00 | 52 | 1005.7 |
| 20260903115356 | 55 | 272 | 0.0 | 0.0 | 0.00 | 0.00 | 0.00 | 52 | 1005.7 |
| 20260903114904 | 55 | 272 | 0.0 | 0.0 | 0.00 | 0.00 | 0.00 | 52 | 1005.7 |
| 20260903114346 | 56 | 272 | 0.0 | 0.0 | 0.00 | 0.00 | 0.00 | 52 | 1005.7 |
| 20260903113844 | 56 | 272 | 0.0 | 0.0 | 0.00 | 0.00 | 0.00 | 52 | 1005.7 |
| 20260903113333 | 56 | 272 | 0.0 | 0.0 | 0.00 | 0.00 | 0.00 | 50 | 1005.7 |
| 20260903112824 | 57 | 272 | 0.0 | 0.0 | 0.00 | 0.00 | 0.00 | 49 | 1005.7 |
| 20260903112328 | 57 | 272 | 0.0 | 0.0 | 0.00 | 0.00 | 0.00 | 48 | 1005.6 |
| 20260903111224 | 57 | 272 | 0.0 | 0.0 | 0.00 | 0.00 | 0.00 | 48 | 1005.5 |
| 20260903110733 | 57 | 272 | 0.0 | 0.0 | 0.00 | 0.00 | 0.00 | 48 | 1005.5 |
| 20260903110241 | 58 | 272 | 0.0 | 0.0 | 0.00 | 0.00 | 0.00 | 47 | 1005.5 |